Overview Statistics Trail Chart Weather Telemetry Raw packets
 

This is the latest recevied weather packets stored in our database for station/object IZ7EXI-13. If no packets are shown the sender has not sent any weather packets the latest 10 day(s).

<< 1 2 3 4 5 >>
Time Temp. Humidity Pressure Rain* Wind** Luminosity Snow
1788644369 28.89° C 44% 1019.1 hPa - - - -
1788643468 28.89° C 41% 1018.9 hPa - - - -
1788642599 28.89° C 43% 1018.8 hPa - - - -
1788642568 28.89° C 43% 1018.8 hPa - - - -
1788641668 28.89° C 40% 1018.9 hPa - - - -
1788640768 28.89° C 38% 1018.8 hPa - - - -
1788639867 29.44° C 38% 1018.7 hPa - - - -
1788638967 30° C 37% 1018.8 hPa - - - -
1788638067 30.56° C 32% 1018.7 hPa - - - -
1788637167 30.56° C 28% 1018.6 hPa - - - -
1788636266 30.56° C 27% 1018.7 hPa - - - -
1788635366 31.11° C 26% 1018.7 hPa - - - -
1788634466 31.67° C 25% 1018.4 hPa - - - -
1788633566 31.67° C 25% 1018.2 hPa - - - -
1788632666 31.67° C 24% 1018.1 hPa - - - -
1788631765 32.22° C 25% 1018 hPa - - - -
1788630865 32.22° C 27% 1018 hPa - - - -
1788629965 32.22° C 29% 1017.8 hPa - - - -
1788629065 32.78° C 29% 1017.7 hPa - - - -
1788628164 33.89° C 29% 1017.6 hPa - - - -
1788627264 35.56° C 27% 1017.4 hPa - - - -
1788626364 36.67° C 24% 1017.4 hPa - - - -
1788625497 37.22° C 23% 1017.4 hPa - - - -
1788625464 37.22° C 23% 1017.4 hPa - - - -
1788624600 37.78° C 22% 1017.4 hPa - - - -

* Rain since midnight (hover to see other rain measurements)
** Current wind speed in m/s (hover to see current wind gust speed)